Weather History for KPMP - May, 2013

Change the Weather History Date:

Tuesday, May 14, 2013

  Actual Average (KFLL) Record (KFLL)
Temperature  
Mean Temperature 76 °F 80 °F  
Max Temperature 81 °F 86 °F 93 °F (1927)
Min Temperature 73 °F 74 °F 58 °F (1977)
Degree Days  
Heating Degree Days 0 0  
Month to date heating degree days 0  
Since 1 July heating degree days 112  
Cooling Degree Days 12 15  
Month to date cooling degree days 195  
Year to date cooling degree days 1142  
Growing Degree Days 26 (Base 50)    
Moisture  
Dew Point 59 °F    
Average Humidity 54    
Maximum Humidity 69    
Minimum Humidity 45    
Precipitation  
Precipitation 0.00 in 0.14 in 4.00 in (1934)
Month to date precipitation 1.36  
Year to date precipitation 14.20  
Snow  
Snow 0.00 in - - ()
Month to date snowfall  
Since 1 July snowfall  
Snow Depth -    
Sea Level Pressure  
Sea Level Pressure 30.14 in    
Wind  
Wind Speed 12 mph (NE)    
Max Wind Speed 17 mph    
Max Gust Speed 23 mph    
Visibility 10 miles    
Events      
T = Trace of Precipitation, MM = Missing Value Source: NWS Daily Summary

Daily Weather History Graph

Daily Weather History Graph

Search for Another Location

Airport or City:

Trip Planner

Search our weather history database for the weather conditions in past years. The results will help you decide how hot, cold, wet, or windy it might be!

Date:

Astronomy

May. 14, 2013 Rise Set
Actual Time 6:34 AM EDT 7:59 PM EDT
Civil Twilight 6:09 AM EDT 8:24 PM EDT
Nautical Twilight 5:39 AM EDT 8:54 PM EDT
Astronomical Twilight 5:08 AM EDT 9:25 PM EDT
Moon 10:11 AM EDT (5/14) 11:49 PM EDT (5/14)
Length of Visible Light 14h 15m
Length of Day
13h 25m
Waxing Crescent, 19% of the Moon is Illuminated
May 14
Waxing Crescent
May 18
First Quarter
May 25
Full
May 31
Last Quarter
Jun 8
New

Hourly Weather History & Observations

Time (EDT) Temp. Heat Index Dew Point Humidity Pressure Visibility Wind Dir Wind Speed Gust Speed Precip Events Conditions
12:53 AM 78.1 °F - 64.9 °F 64% 30.09 in 10.0 mi NE 8.1 mph - N/A   Overcast
1:53 AM 77.0 °F - 64.9 °F 66% 30.08 in 10.0 mi NNE 10.4 mph - N/A   Clear
2:53 AM 77.0 °F - 64.9 °F 66% 30.08 in 10.0 mi NE 11.5 mph - N/A   Mostly Cloudy
3:53 AM 75.9 °F - 64.9 °F 69% 30.08 in 10.0 mi NE 13.8 mph 19.6 mph N/A   Overcast
4:53 AM 75.9 °F - 63.0 °F 64% 30.08 in 10.0 mi NNE 11.5 mph - N/A   Mostly Cloudy
5:53 AM 75.0 °F - 61.0 °F 62% 30.10 in 10.0 mi NNE 8.1 mph - N/A   Mostly Cloudy
6:53 AM 75.0 °F - 60.1 °F 60% 30.12 in 10.0 mi NNE 10.4 mph - N/A   Scattered Clouds
7:53 AM 75.9 °F - 60.1 °F 58% 30.14 in 10.0 mi NNE 13.8 mph - N/A   Partly Cloudy
8:53 AM 77.0 °F - 59.0 °F 54% 30.15 in 10.0 mi NE 13.8 mph 23.0 mph N/A   Scattered Clouds
9:53 AM 78.1 °F - 59.0 °F 52% 30.17 in 10.0 mi NE 15.0 mph - N/A   Clear
10:53 AM 79.0 °F - 57.9 °F 48% 30.18 in 10.0 mi NE 15.0 mph 23.0 mph N/A   Partly Cloudy
11:53 AM 80.1 °F 80.6 °F 57.9 °F 47% 30.19 in 10.0 mi NE 17.3 mph - N/A   Clear
12:53 PM 80.1 °F 80.6 °F 57.9 °F 47% 30.18 in 10.0 mi ENE 12.7 mph 20.7 mph N/A   Partly Cloudy
1:53 PM 80.1 °F 80.6 °F 57.9 °F 47% 30.18 in 10.0 mi NE 16.1 mph - N/A   Partly Cloudy
2:53 PM 80.1 °F 80.6 °F 57.9 °F 47% 30.16 in 10.0 mi ENE 16.1 mph 23.0 mph N/A   Clear
3:53 PM 79.0 °F - 57.0 °F 47% 30.15 in 10.0 mi NE 15.0 mph 23.0 mph N/A   Clear
4:53 PM 79.0 °F - 57.0 °F 47% 30.14 in 10.0 mi NNE 13.8 mph - N/A   Partly Cloudy
5:53 PM 78.1 °F - 57.0 °F 48% 30.14 in 10.0 mi NE 12.7 mph - N/A   Partly Cloudy
6:53 PM 77.0 °F - 54.0 °F 45% 30.14 in 10.0 mi NE 13.8 mph - N/A   Partly Cloudy
7:53 PM 75.0 °F - 55.9 °F 51% 30.15 in 10.0 mi NE 8.1 mph - N/A   Partly Cloudy
8:53 PM 73.9 °F - 55.9 °F 53% 30.16 in 10.0 mi ENE 11.5 mph - N/A   Clear
9:53 PM 73.9 °F - 55.9 °F 53% 30.17 in 10.0 mi ENE 9.2 mph - N/A   Partly Cloudy
10:53 PM 73.9 °F - 55.9 °F 53% 30.18 in 10.0 mi ENE 9.2 mph - N/A   Clear
11:53 PM 73.9 °F - 57.0 °F 55% 30.19 in 10.0 mi ENE 8.1 mph - N/A   Scattered Clouds